Station Historical Data
Daily Summary for September 20, 2017 Units:  English    Metric   Both
« Previous Day
Next Day »
Daily Weekly Monthly Yearly Custom
  High: Low: Average:
Temperature: 88.6 °F 66.1 °F 75.5 °F
Dew Point: 69.2 °F 63.0 °F 66.3 °F
Humidity: 93% 46% 76%
Wind Speed: 8.0mph 2.0mph 4.8mph
Wind Gust: 8.0mph - -
Wind- - WNW
Pressure: 30.07 in 29.98 in -
Precipitation: 0.00 in    
Historical Graphs
 
 
Tabular Data for September 20, 2017
Time Temperature Dew Point Pressure Wind Wind Speed Wind Gust Humidity Rainfall Rate (Hourly) solar Conditions
00:00 70.7 °F 66.6 °F 29.98 in WSW 3.0 mph 3.0 mph 87% 0.00 in WeatherDisplay:10.37 W/m2 OVC
00:05 70.5 °F 66.5 °F 29.98 in WSW 3.0 mph 3.0 mph 87% 0.00 in WeatherDisplay:10.37 W/m2 OVC
00:10 70.3 °F 66.2 °F 29.98 in WSW 3.0 mph 3.0 mph 87% 0.00 in WeatherDisplay:10.37 W/m2 OVC
00:15 70.1 °F 66.4 °F 29.98 in West 5.0 mph 5.0 mph 88% 0.00 in WeatherDisplay:10.37 W/m2 CLR
00:20 69.9 °F 66.2 °F 29.98 in West 5.0 mph 5.0 mph 88% 0.00 in WeatherDisplay:10.37 W/m2 CLR
00:25 69.8 °F 66.1 °F 29.98 in West 5.0 mph 5.0 mph 88% 0.00 in WeatherDisplay:10.37 W/m2 CLR
00:30 69.7 °F 66.3 °F 29.98 in West 5.0 mph 5.0 mph 89% 0.00 in WeatherDisplay:10.37 W/m2 CLR
00:35 69.7 °F 66.3 °F 29.98 in West 5.0 mph 5.0 mph 89% 0.00 in WeatherDisplay:10.37 W/m2 CLR
00:40 69.9 °F 66.5 °F 29.98 in West 5.0 mph 5.0 mph 89% 0.00 in WeatherDisplay:10.37 W/m2 CLR
00:45 69.9 °F 66.5 °F 29.98 in West 5.0 mph 5.0 mph 89% 0.00 in WeatherDisplay:10.37 W/m2 CLR
00:50 69.9 °F 66.5 °F 29.99 in West 5.0 mph 5.0 mph 89% 0.00 in WeatherDisplay:10.37 W/m2 CLR
00:55 69.9 °F 66.5 °F 29.99 in West 5.0 mph 5.0 mph 89% 0.00 in WeatherDisplay:10.37 W/m2 CLR
01:00 69.9 °F 66.5 °F 29.99 in West 5.0 mph 5.0 mph 89% 0.00 in WeatherDisplay:10.37 W/m2 CLR
01:05 70.1 °F 66.7 °F 29.99 in West 5.0 mph 5.0 mph 89% 0.00 in WeatherDisplay:10.37 W/m2 CLR
01:10 70.4 °F 66.7 °F 30.00 in West 5.0 mph 5.0 mph 88% 0.00 in WeatherDisplay:10.37 W/m2 CLR
01:15 70.6 °F 66.5 °F 30.00 in West 5.0 mph 5.0 mph 87% 0.00 in WeatherDisplay:10.37 W/m2 CLR
01:20 70.4 °F 66.3 °F 30.00 in West 5.0 mph 5.0 mph 87% 0.00 in WeatherDisplay:10.37 W/m2 CLR
01:25 70.3 °F 66.6 °F 30.00 in West 5.0 mph 5.0 mph 88% 0.00 in WeatherDisplay:10.37 W/m2 CLR
01:30 70.3 °F 66.6 °F 30.00 in West 5.0 mph 5.0 mph 88% 0.00 in WeatherDisplay:10.37 W/m2 CLR
01:35 70.4 °F 66.7 °F 30.00 in West 5.0 mph 5.0 mph 88% 0.00 in WeatherDisplay:10.37 W/m2 CLR
01:40 70.3 °F 66.6 °F 30.00 in West 5.0 mph 5.0 mph 88% 0.00 in WeatherDisplay:10.37 W/m2 CLR
01:45 70.3 °F 66.6 °F 30.00 in West 5.0 mph 5.0 mph 88% 0.00 in WeatherDisplay:10.37 W/m2 CLR
01:50 70.3 °F 66.5 °F 30.00 in West 5.0 mph 5.0 mph 88% 0.00 in WeatherDisplay:10.37 W/m2 CLR
01:55 70.2 °F 66.8 °F 30.00 in West 5.0 mph 5.0 mph 89% 0.00 in WeatherDisplay:10.37 W/m2 CLR
02:00 70.0 °F 66.6 °F 30.00 in West 5.0 mph 5.0 mph 89% 0.00 in WeatherDisplay:10.37 W/m2 CLR
02:05 69.9 °F 66.5 °F 30.00 in West 5.0 mph 5.0 mph 89% 0.00 in WeatherDisplay:10.37 W/m2 CLR
02:10 69.8 °F 66.4 °F 30.00 in West 5.0 mph 5.0 mph 89% 0.00 in WeatherDisplay:10.37 W/m2 CLR
02:15 69.7 °F 66.6 °F 30.00 in WNW 5.0 mph 5.0 mph 90% 0.00 in WeatherDisplay:10.37 W/m2 CLR
02:20 69.7 °F 66.6 °F 30.00 in WNW 5.0 mph 5.0 mph 90% 0.00 in WeatherDisplay:10.37 W/m2 CLR
02:30 69.7 °F 66.6 °F 30.00 in WNW 5.0 mph 5.0 mph 90% 0.00 in WeatherDisplay:10.37 W/m2 CLR
02:40 69.8 °F 66.7 °F 30.00 in WNW 5.0 mph 5.0 mph 90% 0.00 in WeatherDisplay:10.37 W/m2 CLR
02:45 69.9 °F 66.8 °F 30.00 in WNW 5.0 mph 5.0 mph 90% 0.00 in WeatherDisplay:10.37 W/m2 CLR
02:50 69.8 °F 66.8 °F 30.00 in WNW 5.0 mph 5.0 mph 90% 0.00 in WeatherDisplay:10.37 W/m2 CLR
02:55 69.8 °F 66.7 °F 30.00 in WNW 5.0 mph 5.0 mph 90% 0.00 in WeatherDisplay:10.37 W/m2 CLR
03:00 69.8 °F 66.7 °F 29.99 in WNW 5.0 mph 5.0 mph 90% 0.00 in WeatherDisplay:10.37 W/m2 CLR
03:05 69.8 °F 66.7 °F 29.99 in WNW 5.0 mph 5.0 mph 90% 0.00 in WeatherDisplay:10.37 W/m2 CLR
03:10 69.7 °F 66.6 °F 29.99 in WNW 5.0 mph 5.0 mph 90% 0.00 in WeatherDisplay:10.37 W/m2 CLR
03:15 69.7 °F 66.6 °F 29.99 in NW 3.0 mph 5.0 mph 90% 0.00 in WeatherDisplay:10.37 W/m2 CLR
03:20 69.7 °F 66.6 °F 29.99 in NNW 3.0 mph 3.0 mph 90% 0.00 in WeatherDisplay:10.37 W/m2 CLR
03:25 69.6 °F 66.5 °F 29.99 in NNW 3.0 mph 3.0 mph 90% 0.00 in WeatherDisplay:10.37 W/m2 CLR
03:30 69.4 °F 66.3 °F 29.99 in NNW 3.0 mph 3.0 mph 90% 0.00 in WeatherDisplay:10.37 W/m2 CLR
03:35 69.2 °F 66.1 °F 29.99 in NNW 3.0 mph 3.0 mph 90% 0.00 in WeatherDisplay:10.37 W/m2 CLR
03:40 69.0 °F 65.9 °F 29.99 in NNW 3.0 mph 3.0 mph 90% 0.00 in WeatherDisplay:10.37 W/m2 CLR
03:45 68.9 °F 65.8 °F 29.99 in NNW 3.0 mph 3.0 mph 90% 0.00 in WeatherDisplay:10.37 W/m2 CLR
03:50 68.7 °F 65.7 °F 29.99 in NNW 3.0 mph 3.0 mph 90% 0.00 in WeatherDisplay:10.37 W/m2 CLR
03:55 68.6 °F 65.9 °F 29.99 in NNW 3.0 mph 3.0 mph 91% 0.00 in WeatherDisplay:10.37 W/m2 CLR
04:00 68.5 °F 65.8 °F 29.99 in NNW 3.0 mph 3.0 mph 91% 0.00 in WeatherDisplay:10.37 W/m2 CLR
04:05 68.4 °F 65.7 °F 29.99 in NNW 3.0 mph 3.0 mph 91% 0.00 in WeatherDisplay:10.37 W/m2 CLR
04:10 68.3 °F 65.6 °F 29.99 in NNW 3.0 mph 3.0 mph 91% 0.00 in WeatherDisplay:10.37 W/m2 CLR
04:15 68.2 °F 65.5 °F 29.99 in NNW 3.0 mph 3.0 mph 91% 0.00 in WeatherDisplay:10.37 W/m2 CLR
04:20 68.1 °F 65.4 °F 29.99 in NNW 3.0 mph 3.0 mph 91% 0.00 in WeatherDisplay:10.37 W/m2 CLR
04:25 68.1 °F 65.4 °F 29.99 in NNW 3.0 mph 3.0 mph 91% 0.00 in WeatherDisplay:10.37 W/m2 CLR
04:30 68.0 °F 65.3 °F 29.99 in NNW 3.0 mph 3.0 mph 91% 0.00 in WeatherDisplay:10.37 W/m2 CLR
04:40 67.9 °F 65.2 °F 29.99 in NNW 3.0 mph 3.0 mph 91% 0.00 in WeatherDisplay:10.37 W/m2 CLR
04:45 67.8 °F 65.4 °F 29.99 in NNW 3.0 mph 3.0 mph 92% 0.00 in WeatherDisplay:10.37 W/m2 CLR
04:50 67.7 °F 65.3 °F 29.99 in NNW 3.0 mph 3.0 mph 92% 0.00 in WeatherDisplay:10.37 W/m2 CLR
04:55 67.6 °F 65.2 °F 29.99 in NNW 3.0 mph 3.0 mph 92% 0.00 in WeatherDisplay:10.37 W/m2 CLR
05:00 67.5 °F 65.1 °F 29.99 in NNW 3.0 mph 3.0 mph 92% 0.00 in WeatherDisplay:10.37 W/m2 CLR
05:05 67.4 °F 65.0 °F 29.99 in NNW 3.0 mph 3.0 mph 92% 0.00 in WeatherDisplay:10.37 W/m2 CLR
05:10 67.3 °F 64.9 °F 29.99 in NNW 3.0 mph 3.0 mph 92% 0.00 in WeatherDisplay:10.37 W/m2 CLR
05:15 67.3 °F 64.9 °F 29.99 in NNW 3.0 mph 3.0 mph 92% 0.00 in WeatherDisplay:10.37 W/m2 CLR
05:20 67.2 °F 64.8 °F 29.98 in NNW 3.0 mph 3.0 mph 92% 0.00 in WeatherDisplay:10.37 W/m2 CLR
05:25 67.2 °F 64.8 °F 29.98 in NNW 3.0 mph 3.0 mph 92% 0.00 in WeatherDisplay:10.37 W/m2 CLR
05:30 67.1 °F 64.7 °F 29.99 in NNW 3.0 mph 3.0 mph 92% 0.00 in WeatherDisplay:10.37 W/m2 CLR
05:35 67.1 °F 64.7 °F 29.99 in NNW 3.0 mph 3.0 mph 92% 0.00 in WeatherDisplay:10.37 W/m2 CLR
05:40 67.1 °F 64.7 °F 29.99 in NNW 3.0 mph 3.0 mph 92% 0.00 in WeatherDisplay:10.37 W/m2 CLR
05:45 67.1 °F 64.7 °F 29.99 in NNW 3.0 mph 3.0 mph 92% 0.00 in WeatherDisplay:10.37 W/m2 CLR
05:50 66.9 °F 64.5 °F 29.99 in NNW 3.0 mph 3.0 mph 92% 0.00 in WeatherDisplay:10.37 W/m2 CLR
05:55 66.8 °F 64.4 °F 29.99 in NNW 3.0 mph 3.0 mph 92% 0.00 in WeatherDisplay:10.37 W/m2 CLR
06:00 66.7 °F 64.3 °F 29.99 in NNW 3.0 mph 3.0 mph 92% 0.00 in WeatherDisplay:10.37 W/m2 CLR
06:05 66.6 °F 64.2 °F 30.00 in NNW 3.0 mph 3.0 mph 92% 0.00 in WeatherDisplay:10.37 W/m2 CLR
06:10 66.6 °F 64.2 °F 30.00 in NNW 3.0 mph 3.0 mph 92% 0.00 in WeatherDisplay:10.37 W/m2 CLR
06:15 66.6 °F 64.2 °F 30.00 in NNW 3.0 mph 3.0 mph 92% 0.00 in WeatherDisplay:10.37 W/m2 CLR
06:20 66.7 °F 64.3 °F 30.00 in NNW 3.0 mph 3.0 mph 92% 0.00 in WeatherDisplay:10.37 W/m2 CLR
06:25 66.7 °F 64.3 °F 30.00 in NNW 3.0 mph 3.0 mph 92% 0.00 in WeatherDisplay:10.37 W/m2 CLR
06:30 66.6 °F 64.2 °F 30.00 in NNW 3.0 mph 3.0 mph 92% 0.00 in WeatherDisplay:10.37 W/m2 CLR
06:35 66.5 °F 64.1 °F 30.01 in NNW 3.0 mph 3.0 mph 92% 0.00 in WeatherDisplay:10.37 W/m2 CLR
06:40 66.4 °F 64.0 °F 30.01 in NNW 3.0 mph 3.0 mph 92% 0.00 in WeatherDisplay:10.37 W/m2 CLR
06:45 66.5 °F 64.1 °F 30.01 in NNW 3.0 mph 3.0 mph 92% 0.00 in WeatherDisplay:10.37 W/m2 CLR
06:50 67.1 °F 65.0 °F 30.01 in NNW 3.0 mph 3.0 mph 93% 0.00 in WeatherDisplay:10.37 W/m2 CLR
06:55 66.9 °F 64.5 °F 30.01 in NNW 3.0 mph 3.0 mph 92% 0.00 in WeatherDisplay:10.37 W/m2 CLR
07:00 66.5 °F 64.1 °F 30.02 in NNW 3.0 mph 3.0 mph 92% 0.00 in WeatherDisplay:10.37 W/m2 CLR
07:05 66.3 °F 63.9 °F 30.02 in NNW 3.0 mph 3.0 mph 92% 0.00 in WeatherDisplay:10.37 W/m2 CLR
07:10 66.2 °F 63.8 °F 30.02 in NNW 3.0 mph 3.0 mph 92% 0.00 in WeatherDisplay:10.37 W/m2 CLR
07:15 66.1 °F 63.7 °F 30.02 in NNW 3.0 mph 3.0 mph 92% 0.00 in WeatherDisplay:10.37 W/m2 CLR
07:20 66.1 °F 63.7 °F 30.03 in NNW 3.0 mph 3.0 mph 92% 0.00 in WeatherDisplay:10.37 W/m2 CLR
07:30 66.2 °F 64.1 °F 30.03 in NNW 3.0 mph 3.0 mph 93% 0.00 in WeatherDisplay:10.37 W/m2 CLR
07:40 66.2 °F 64.1 °F 30.03 in NNW 3.0 mph 3.0 mph 93% 0.00 in WeatherDisplay:10.37 W/m2 CLR
07:45 66.3 °F 64.2 °F 30.03 in NNW 3.0 mph 3.0 mph 93% 0.00 in WeatherDisplay:10.37 W/m2 CLR
07:50 66.3 °F 64.3 °F 30.04 in NNW 3.0 mph 3.0 mph 93% 0.00 in WeatherDisplay:10.37 W/m2 CLR
07:55 66.4 °F 64.3 °F 30.04 in NNW 3.0 mph 3.0 mph 93% 0.00 in WeatherDisplay:10.37 W/m2 CLR
08:00 66.5 °F 64.4 °F 30.04 in NNW 3.0 mph 3.0 mph 93% 0.00 in WeatherDisplay:10.37 W/m2 CLR
08:05 66.5 °F 64.4 °F 30.04 in NNW 3.0 mph 3.0 mph 93% 0.00 in WeatherDisplay:10.37 W/m2 CLR
08:10 66.5 °F 64.4 °F 30.04 in NNW 3.0 mph 3.0 mph 93% 0.00 in WeatherDisplay:10.37 W/m2 CLR
08:15 66.6 °F 64.5 °F 30.04 in WNW 3.0 mph 3.0 mph 93% 0.00 in WeatherDisplay:10.37 W/m2 FEW
08:20 66.6 °F 64.5 °F 30.04 in West 3.0 mph 3.0 mph 93% 0.00 in WeatherDisplay:10.37 W/m2 FEW
08:25 66.7 °F 64.6 °F 30.04 in West 3.0 mph 3.0 mph 93% 0.00 in WeatherDisplay:10.37 W/m2 FEW
08:30 66.8 °F 64.7 °F 30.04 in West 3.0 mph 3.0 mph 93% 0.00 in WeatherDisplay:10.37 W/m2 FEW
08:40 67.1 °F 65.0 °F 30.04 in West 3.0 mph 3.0 mph 93% 0.00 in WeatherDisplay:10.37 W/m2 FEW
08:45 67.3 °F 65.2 °F 30.04 in West 3.0 mph 3.0 mph 93% 0.00 in WeatherDisplay:10.37 W/m2 FEW
08:50 67.5 °F 65.4 °F 30.05 in West 3.0 mph 3.0 mph 93% 0.00 in WeatherDisplay:10.37 W/m2 FEW
08:55 67.6 °F 65.5 °F 30.05 in West 3.0 mph 3.0 mph 93% 0.00 in WeatherDisplay:10.37 W/m2 FEW
09:00 67.8 °F 65.7 °F 30.05 in West 3.0 mph 3.0 mph 93% 0.00 in WeatherDisplay:10.37 W/m2 FEW
09:05 68.1 °F 66.0 °F 30.05 in West 3.0 mph 3.0 mph 93% 0.00 in WeatherDisplay:10.37 W/m2 FEW
09:10 68.4 °F 66.3 °F 30.05 in West 3.0 mph 3.0 mph 93% 0.00 in WeatherDisplay:10.37 W/m2 FEW
09:15 68.7 °F 66.6 °F 30.05 in West 3.0 mph 3.0 mph 93% 0.00 in WeatherDisplay:10.37 W/m2 CLR
09:20 69.2 °F 67.1 °F 30.05 in West 3.0 mph 3.0 mph 93% 0.00 in WeatherDisplay:10.37 W/m2 CLR
09:25 69.6 °F 67.5 °F 30.05 in West 3.0 mph 3.0 mph 93% 0.00 in WeatherDisplay:10.37 W/m2 CLR
09:30 70.1 °F 67.7 °F 30.05 in West 3.0 mph 3.0 mph 92% 0.00 in WeatherDisplay:10.37 W/m2 CLR
09:40 71.4 °F 68.3 °F 30.06 in West 3.0 mph 3.0 mph 90% 0.00 in WeatherDisplay:10.37 W/m2 CLR
09:45 71.8 °F 68.1 °F 30.06 in West 3.0 mph 3.0 mph 88% 0.00 in WeatherDisplay:10.37 W/m2 CLR
09:50 72.4 °F 68.3 °F 30.06 in West 3.0 mph 3.0 mph 87% 0.00 in WeatherDisplay:10.37 W/m2 CLR
09:55 73.0 °F 68.3 °F 30.06 in West 3.0 mph 3.0 mph 85% 0.00 in WeatherDisplay:10.37 W/m2 CLR
10:00 73.7 °F 68.9 °F 30.06 in West 3.0 mph 3.0 mph 85% 0.00 in WeatherDisplay:10.37 W/m2 CLR
10:05 74.2 °F 68.7 °F 30.06 in West 3.0 mph 3.0 mph 83% 0.00 in WeatherDisplay:10.37 W/m2 CLR
10:10 74.7 °F 69.2 °F 30.06 in West 3.0 mph 3.0 mph 83% 0.00 in WeatherDisplay:10.37 W/m2 CLR
10:15 75.3 °F 69.0 °F 30.06 in West 2.0 mph 3.0 mph 81% 0.00 in WeatherDisplay:10.37 W/m2 CLR
10:20 75.7 °F 68.4 °F 30.07 in West 2.0 mph 2.0 mph 78% 0.00 in WeatherDisplay:10.37 W/m2 CLR
10:25 76.2 °F 69.2 °F 30.07 in West 2.0 mph 2.0 mph 79% 0.00 in WeatherDisplay:10.37 W/m2 CLR
10:30 76.5 °F 68.0 °F 30.07 in West 2.0 mph 2.0 mph 75% 0.00 in WeatherDisplay:10.37 W/m2 CLR
10:35 76.9 °F 68.4 °F 30.06 in West 2.0 mph 2.0 mph 75% 0.00 in WeatherDisplay:10.37 W/m2 CLR
10:40 77.7 °F 69.1 °F 30.06 in West 2.0 mph 2.0 mph 75% 0.00 in WeatherDisplay:10.37 W/m2 CLR
10:45 78.4 °F 66.6 °F 30.06 in West 2.0 mph 2.0 mph 67% 0.00 in WeatherDisplay:10.37 W/m2 CLR
10:55 80.2 °F 66.9 °F 30.07 in West 2.0 mph 2.0 mph 64% 0.00 in WeatherDisplay:10.37 W/m2 CLR
11:00 81.0 °F 66.7 °F 30.07 in West 2.0 mph 2.0 mph 62% 0.00 in WeatherDisplay:10.37 W/m2 CLR
11:05 81.9 °F 68.1 °F 30.06 in West 2.0 mph 2.0 mph 63% 0.00 in WeatherDisplay:10.37 W/m2 CLR
11:10 82.7 °F 67.9 °F 30.06 in West 2.0 mph 2.0 mph 61% 0.00 in WeatherDisplay:10.37 W/m2 CLR
11:15 83.5 °F 68.1 °F 30.06 in NW 5.0 mph 5.0 mph 60% 0.00 in WeatherDisplay:10.37 W/m2 FEW
11:20 84.0 °F 67.1 °F 30.06 in NNW 5.0 mph 5.0 mph 57% 0.00 in WeatherDisplay:10.37 W/m2 FEW
11:25 84.0 °F 67.6 °F 30.06 in NNW 5.0 mph 5.0 mph 58% 0.00 in WeatherDisplay:10.37 W/m2 FEW
11:30 84.2 °F 67.3 °F 30.06 in NNW 5.0 mph 5.0 mph 57% 0.00 in WeatherDisplay:10.37 W/m2 FEW
11:40 85.4 °F 68.4 °F 30.06 in NNW 5.0 mph 5.0 mph 57% 0.00 in WeatherDisplay:10.37 W/m2 FEW
11:45 85.5 °F 68.5 °F 30.06 in NNW 5.0 mph 5.0 mph 57% 0.00 in WeatherDisplay:10.37 W/m2 FEW
11:50 85.8 °F 67.8 °F 30.06 in NNW 5.0 mph 5.0 mph 55% 0.00 in WeatherDisplay:10.37 W/m2 FEW
11:55 85.9 °F 67.3 °F 30.06 in NNW 5.0 mph 5.0 mph 54% 0.00 in WeatherDisplay:10.37 W/m2 FEW
12:00 85.6 °F 67.0 °F 30.06 in NNW 5.0 mph 5.0 mph 54% 0.00 in WeatherDisplay:10.37 W/m2 FEW
12:05 85.8 °F 67.2 °F 30.06 in NNW 5.0 mph 5.0 mph 54% 0.00 in WeatherDisplay:10.37 W/m2 FEW
12:10 85.9 °F 66.2 °F 30.06 in NNW 5.0 mph 5.0 mph 52% 0.00 in WeatherDisplay:10.37 W/m2 FEW
12:15 86.4 °F 66.1 °F 30.06 in NNW 5.0 mph 5.0 mph 51% 0.00 in WeatherDisplay:10.37 W/m2 FEW
12:20 86.6 °F 67.4 °F 30.06 in North 5.0 mph 5.0 mph 53% 0.00 in WeatherDisplay:10.37 W/m2 FEW
12:25 86.9 °F 67.7 °F 30.06 in North 5.0 mph 5.0 mph 53% 0.00 in WeatherDisplay:10.37 W/m2 FEW
12:30 86.8 °F 66.5 °F 30.06 in North 5.0 mph 5.0 mph 51% 0.00 in WeatherDisplay:10.37 W/m2 FEW
12:35 87.0 °F 66.7 °F 30.06 in North 5.0 mph 5.0 mph 51% 0.00 in WeatherDisplay:10.37 W/m2 FEW
12:40 87.2 °F 65.1 °F 30.06 in North 5.0 mph 5.0 mph 48% 0.00 in WeatherDisplay:10.37 W/m2 FEW
12:45 87.4 °F 66.5 °F 30.06 in North 5.0 mph 5.0 mph 50% 0.00 in WeatherDisplay:10.37 W/m2 FEW
12:50 87.7 °F 67.3 °F 30.05 in North 5.0 mph 5.0 mph 51% 0.00 in WeatherDisplay:10.37 W/m2 FEW
12:55 88.3 °F 68.5 °F 30.05 in North 5.0 mph 5.0 mph 52% 0.00 in WeatherDisplay:10.37 W/m2 FEW
13:00 88.6 °F 66.4 °F 30.05 in North 5.0 mph 5.0 mph 48% 0.00 in WeatherDisplay:10.37 W/m2 FEW
13:05 87.8 °F 66.3 °F 30.05 in North 5.0 mph 5.0 mph 49% 0.00 in WeatherDisplay:10.37 W/m2 FEW
13:10 87.4 °F 67.0 °F 30.05 in North 5.0 mph 5.0 mph 51% 0.00 in WeatherDisplay:10.37 W/m2 FEW
13:15 86.8 °F 66.5 °F 30.05 in NNW 6.0 mph 6.0 mph 51% 0.00 in WeatherDisplay:10.37 W/m2 FEW
13:20 86.3 °F 66.6 °F 30.05 in NNW 6.0 mph 6.0 mph 52% 0.00 in WeatherDisplay:10.37 W/m2 FEW
13:25 86.3 °F 67.2 °F 30.05 in NNW 6.0 mph 6.0 mph 53% 0.00 in WeatherDisplay:10.37 W/m2 FEW
13:30 86.1 °F 68.0 °F 30.05 in NNW 6.0 mph 6.0 mph 55% 0.00 in WeatherDisplay:10.37 W/m2 FEW
13:35 85.9 °F 66.2 °F 30.04 in NNW 6.0 mph 6.0 mph 52% 0.00 in WeatherDisplay:10.37 W/m2 FEW
13:40 85.6 °F 67.1 °F 30.04 in NNW 6.0 mph 6.0 mph 54% 0.00 in WeatherDisplay:10.37 W/m2 FEW
13:45 85.9 °F 66.8 °F 30.04 in NNW 6.0 mph 6.0 mph 53% 0.00 in WeatherDisplay:10.37 W/m2 FEW
13:50 86.4 °F 67.2 °F 30.04 in NNW 6.0 mph 6.0 mph 53% 0.00 in WeatherDisplay:10.37 W/m2 FEW
13:55 86.5 °F 65.7 °F 30.04 in NNW 6.0 mph 6.0 mph 50% 0.00 in WeatherDisplay:10.37 W/m2 FEW
14:00 87.0 °F 67.8 °F 30.03 in NNW 6.0 mph 6.0 mph 53% 0.00 in WeatherDisplay:10.37 W/m2 FEW
14:05 87.3 °F 65.8 °F 30.03 in NNW 6.0 mph 6.0 mph 49% 0.00 in WeatherDisplay:10.37 W/m2 FEW
14:10 87.3 °F 65.8 °F 30.03 in NNW 6.0 mph 6.0 mph 49% 0.00 in WeatherDisplay:10.37 W/m2 FEW
14:15 87.9 °F 67.6 °F 30.03 in WNW 5.0 mph 6.0 mph 51% 0.00 in WeatherDisplay:10.37 W/m2 FEW
14:20 88.4 °F 66.8 °F 30.03 in West 5.0 mph 5.0 mph 49% 0.00 in WeatherDisplay:10.37 W/m2 FEW
14:30 87.9 °F 65.8 °F 30.02 in West 5.0 mph 5.0 mph 48% 0.00 in WeatherDisplay:10.37 W/m2 FEW
14:35 87.7 °F 65.6 °F 30.02 in West 5.0 mph 5.0 mph 48% 0.00 in WeatherDisplay:10.37 W/m2 FEW
14:40 87.4 °F 64.7 °F 30.02 in West 5.0 mph 5.0 mph 47% 0.00 in WeatherDisplay:10.37 W/m2 FEW
14:45 87.0 °F 63.7 °F 30.02 in West 5.0 mph 5.0 mph 46% 0.00 in WeatherDisplay:10.37 W/m2 FEW
14:50 87.3 °F 64.6 °F 30.02 in West 5.0 mph 5.0 mph 47% 0.00 in WeatherDisplay:10.37 W/m2 FEW
15:00 87.5 °F 65.9 °F 30.02 in West 5.0 mph 5.0 mph 49% 0.00 in WeatherDisplay:10.37 W/m2 FEW
15:05 87.6 °F 64.8 °F 30.02 in West 5.0 mph 5.0 mph 47% 0.00 in WeatherDisplay:10.37 W/m2 FEW
15:10 87.2 °F 63.9 °F 30.01 in West 5.0 mph 5.0 mph 46% 0.00 in WeatherDisplay:10.37 W/m2 FEW
15:15 86.9 °F 64.8 °F 30.01 in West 6.0 mph 6.0 mph 48% 0.00 in WeatherDisplay:10.37 W/m2 FEW
15:20 86.5 °F 64.5 °F 30.01 in West 6.0 mph 6.0 mph 48% 0.00 in WeatherDisplay:10.37 W/m2 FEW
15:30 86.1 °F 64.7 °F 30.01 in West 6.0 mph 6.0 mph 49% 0.00 in WeatherDisplay:10.37 W/m2 FEW
15:40 85.5 °F 65.9 °F 30.01 in West 6.0 mph 6.0 mph 52% 0.00 in WeatherDisplay:10.37 W/m2 FEW
15:45 85.3 °F 65.1 °F 30.01 in West 6.0 mph 6.0 mph 51% 0.00 in WeatherDisplay:10.37 W/m2 FEW
15:50 85.1 °F 64.4 °F 30.00 in West 6.0 mph 6.0 mph 50% 0.00 in WeatherDisplay:10.37 W/m2 FEW
15:55 85.0 °F 64.3 °F 30.00 in West 6.0 mph 6.0 mph 50% 0.00 in WeatherDisplay:10.37 W/m2 FEW
16:00 85.0 °F 64.3 °F 30.00 in West 6.0 mph 6.0 mph 50% 0.00 in WeatherDisplay:10.37 W/m2 FEW
16:10 85.4 °F 64.6 °F 30.00 in West 6.0 mph 6.0 mph 50% 0.00 in WeatherDisplay:10.37 W/m2 FEW
16:15 85.6 °F 64.8 °F 30.00 in NW 8.0 mph 8.0 mph 50% 0.00 in WeatherDisplay:10.37 W/m2 FEW
16:20 85.7 °F 65.5 °F 29.99 in NNW 8.0 mph 8.0 mph 51% 0.00 in WeatherDisplay:10.37 W/m2 FEW
16:25 85.5 °F 63.0 °F 29.99 in NNW 8.0 mph 8.0 mph 47% 0.00 in WeatherDisplay:10.37 W/m2 FEW
16:30 85.4 °F 64.1 °F 29.99 in NNW 8.0 mph 8.0 mph 49% 0.00 in WeatherDisplay:10.37 W/m2 FEW
16:40 85.7 °F 64.9 °F 29.99 in NNW 8.0 mph 8.0 mph 50% 0.00 in WeatherDisplay:10.37 W/m2 FEW
16:45 85.5 °F 64.7 °F 29.99 in NNW 8.0 mph 8.0 mph 50% 0.00 in WeatherDisplay:10.37 W/m2 FEW
16:50 85.3 °F 65.6 °F 29.99 in NNW 8.0 mph 8.0 mph 52% 0.00 in WeatherDisplay:10.37 W/m2 FEW
16:55 85.0 °F 64.9 °F 29.99 in NNW 8.0 mph 8.0 mph 51% 0.00 in WeatherDisplay:10.37 W/m2 FEW
17:00 84.8 °F 66.3 °F 29.99 in NNW 8.0 mph 8.0 mph 54% 0.00 in WeatherDisplay:10.37 W/m2 FEW
17:10 84.3 °F 67.9 °F 29.98 in NNW 8.0 mph 8.0 mph 58% 0.00 in WeatherDisplay:10.37 W/m2 FEW
17:15 84.1 °F 67.7 °F 29.98 in WNW 7.0 mph 8.0 mph 58% 0.00 in WeatherDisplay:10.37 W/m2 SCT
17:20 83.7 °F 68.3 °F 29.98 in West 7.0 mph 7.0 mph 60% 0.00 in WeatherDisplay:10.37 W/m2 SCT
17:25 83.4 °F 67.1 °F 29.98 in West 7.0 mph 7.0 mph 58% 0.00 in WeatherDisplay:10.37 W/m2 SCT
17:30 83.1 °F 66.8 °F 29.98 in West 7.0 mph 7.0 mph 58% 0.00 in WeatherDisplay:10.37 W/m2 SCT
17:40 82.9 °F 67.1 °F 29.98 in West 7.0 mph 7.0 mph 59% 0.00 in WeatherDisplay:10.37 W/m2 SCT
17:45 82.9 °F 67.6 °F 29.98 in West 7.0 mph 7.0 mph 60% 0.00 in WeatherDisplay:10.37 W/m2 SCT
17:50 82.8 °F 67.5 °F 29.98 in West 7.0 mph 7.0 mph 60% 0.00 in WeatherDisplay:10.37 W/m2 SCT
17:55 82.6 °F 68.3 °F 29.98 in West 7.0 mph 7.0 mph 62% 0.00 in WeatherDisplay:10.37 W/m2 SCT
18:05 82.1 °F 66.8 °F 29.98 in West 7.0 mph 7.0 mph 60% 0.00 in WeatherDisplay:10.37 W/m2 SCT
18:10 81.8 °F 67.0 °F 29.98 in West 7.0 mph 7.0 mph 61% 0.00 in WeatherDisplay:10.37 W/m2 SCT
18:15 81.4 °F 67.1 °F 29.98 in WNW 6.0 mph 7.0 mph 62% 0.00 in WeatherDisplay:10.37 W/m2 SCT
18:20 81.1 °F 67.3 °F 29.98 in WNW 6.0 mph 6.0 mph 63% 0.00 in WeatherDisplay:10.37 W/m2 SCT
18:25 80.9 °F 67.6 °F 29.98 in WNW 6.0 mph 6.0 mph 64% 0.00 in WeatherDisplay:10.37 W/m2 SCT
18:30 80.6 °F 67.3 °F 29.98 in WNW 6.0 mph 6.0 mph 64% 0.00 in WeatherDisplay:10.37 W/m2 SCT
18:35 80.4 °F 67.5 °F 29.99 in WNW 6.0 mph 6.0 mph 65% 0.00 in WeatherDisplay:10.37 W/m2 SCT
18:40 79.9 °F 67.5 °F 29.99 in WNW 6.0 mph 6.0 mph 66% 0.00 in WeatherDisplay:10.37 W/m2 SCT
18:45 79.6 °F 67.7 °F 29.99 in WNW 6.0 mph 6.0 mph 67% 0.00 in WeatherDisplay:10.37 W/m2 SCT
18:50 79.3 °F 67.8 °F 29.99 in WNW 6.0 mph 6.0 mph 68% 0.00 in WeatherDisplay:10.37 W/m2 SCT
18:55 79.2 °F 67.7 °F 29.99 in WNW 6.0 mph 6.0 mph 68% 0.00 in WeatherDisplay:10.37 W/m2 SCT
19:00 78.9 °F 67.5 °F 29.99 in WNW 6.0 mph 6.0 mph 68% 0.00 in WeatherDisplay:10.37 W/m2 SCT
19:05 78.6 °F 67.6 °F 29.99 in WNW 6.0 mph 6.0 mph 69% 0.00 in WeatherDisplay:10.37 W/m2 SCT
19:10 78.3 °F 67.7 °F 29.99 in WNW 6.0 mph 6.0 mph 70% 0.00 in WeatherDisplay:10.37 W/m2 SCT
19:15 78.0 °F 67.4 °F 29.99 in WNW 7.0 mph 7.0 mph 70% 0.00 in WeatherDisplay:10.37 W/m2 BKN
19:20 77.8 °F 67.6 °F 30.00 in West 7.0 mph 7.0 mph 71% 0.00 in WeatherDisplay:10.37 W/m2 BKN
19:25 77.6 °F 67.4 °F 30.00 in West 7.0 mph 7.0 mph 71% 0.00 in WeatherDisplay:10.37 W/m2 BKN
19:30 77.4 °F 67.3 °F 30.00 in West 7.0 mph 7.0 mph 71% 0.00 in WeatherDisplay:10.37 W/m2 BKN
19:35 77.2 °F 67.5 °F 30.00 in West 7.0 mph 7.0 mph 72% 0.00 in WeatherDisplay:10.37 W/m2 BKN
19:40 76.9 °F 67.2 °F 30.00 in West 7.0 mph 7.0 mph 72% 0.00 in WeatherDisplay:10.37 W/m2 BKN
19:45 76.6 °F 67.3 °F 30.00 in West 7.0 mph 7.0 mph 73% 0.00 in WeatherDisplay:10.37 W/m2 BKN
19:50 76.3 °F 67.0 °F 30.00 in West 7.0 mph 7.0 mph 73% 0.00 in WeatherDisplay:10.37 W/m2 BKN
19:55 76.1 °F 67.2 °F 30.00 in West 7.0 mph 7.0 mph 74% 0.00 in WeatherDisplay:10.37 W/m2 BKN
20:00 76.1 °F 67.2 °F 30.00 in West 7.0 mph 7.0 mph 74% 0.00 in WeatherDisplay:10.37 W/m2 BKN
20:10 76.0 °F 67.1 °F 30.00 in West 7.0 mph 7.0 mph 74% 0.00 in WeatherDisplay:10.37 W/m2 BKN
20:15 75.8 °F 66.9 °F 30.00 in West 7.0 mph 7.0 mph 74% 0.00 in WeatherDisplay:10.37 W/m2 BKN
20:20 75.6 °F 67.2 °F 30.00 in West 7.0 mph 7.0 mph 75% 0.00 in WeatherDisplay:10.37 W/m2 BKN
20:25 75.7 °F 67.2 °F 30.00 in West 7.0 mph 7.0 mph 75% 0.00 in WeatherDisplay:10.37 W/m2 BKN
20:30 75.7 °F 67.2 °F 30.01 in West 7.0 mph 7.0 mph 75% 0.00 in WeatherDisplay:10.37 W/m2 BKN
20:40 75.3 °F 66.8 °F 30.01 in West 7.0 mph 7.0 mph 75% 0.00 in WeatherDisplay:10.37 W/m2 BKN
20:45 75.2 °F 67.1 °F 30.01 in West 7.0 mph 7.0 mph 76% 0.00 in WeatherDisplay:10.37 W/m2 BKN
20:50 74.9 °F 66.8 °F 30.01 in West 7.0 mph 7.0 mph 76% 0.00 in WeatherDisplay:10.37 W/m2 BKN
20:55 74.7 °F 67.0 °F 30.01 in West 7.0 mph 7.0 mph 77% 0.00 in WeatherDisplay:10.37 W/m2 BKN
21:00 74.5 °F 66.8 °F 30.01 in West 7.0 mph 7.0 mph 77% 0.00 in WeatherDisplay:10.37 W/m2 BKN
21:05 74.4 °F 66.7 °F 30.01 in West 7.0 mph 7.0 mph 77% 0.00 in WeatherDisplay:10.37 W/m2 BKN
21:10 74.3 °F 67.0 °F 30.02 in West 7.0 mph 7.0 mph 78% 0.00 in WeatherDisplay:10.37 W/m2 BKN
21:15 74.2 °F 66.9 °F 30.02 in West 7.0 mph 7.0 mph 78% 0.00 in WeatherDisplay:10.37 W/m2 SCT
21:20 74.1 °F 66.8 °F 30.02 in West 7.0 mph 7.0 mph 78% 0.00 in WeatherDisplay:10.37 W/m2 SCT
21:25 74.0 °F 67.1 °F 30.02 in West 7.0 mph 7.0 mph 79% 0.00 in WeatherDisplay:10.37 W/m2 SCT
21:30 73.9 °F 67.0 °F 30.02 in West 7.0 mph 7.0 mph 79% 0.00 in WeatherDisplay:10.37 W/m2 SCT
21:35 73.8 °F 66.9 °F 30.02 in West 7.0 mph 7.0 mph 79% 0.00 in WeatherDisplay:10.37 W/m2 SCT
21:40 73.7 °F 66.8 °F 30.02 in West 7.0 mph 7.0 mph 79% 0.00 in WeatherDisplay:10.37 W/m2 SCT
21:45 73.7 °F 67.1 °F 30.02 in West 7.0 mph 7.0 mph 80% 0.00 in WeatherDisplay:10.37 W/m2 SCT
21:50 73.6 °F 66.7 °F 30.02 in West 7.0 mph 7.0 mph 79% 0.00 in WeatherDisplay:10.37 W/m2 SCT
21:55 73.6 °F 67.0 °F 30.02 in West 7.0 mph 7.0 mph 80% 0.00 in WeatherDisplay:10.37 W/m2 SCT
22:00 73.6 °F 67.0 °F 30.02 in West 7.0 mph 7.0 mph 80% 0.00 in WeatherDisplay:10.37 W/m2 SCT
22:05 73.5 °F 66.9 °F 30.03 in West 7.0 mph 7.0 mph 80% 0.00 in WeatherDisplay:10.37 W/m2 SCT
22:10 73.6 °F 67.0 °F 30.03 in West 7.0 mph 7.0 mph 80% 0.00 in WeatherDisplay:10.37 W/m2 SCT
22:15 73.7 °F 67.2 °F 30.03 in West 5.0 mph 7.0 mph 80% 0.00 in WeatherDisplay:10.37 W/m2 FEW
22:20 73.8 °F 67.2 °F 30.03 in West 5.0 mph 5.0 mph 80% 0.00 in WeatherDisplay:10.37 W/m2 FEW
22:25 73.8 °F 67.2 °F 30.03 in West 5.0 mph 5.0 mph 80% 0.00 in WeatherDisplay:10.37 W/m2 FEW
22:30 73.7 °F 67.1 °F 30.03 in West 5.0 mph 5.0 mph 80% 0.00 in WeatherDisplay:10.37 W/m2 FEW
22:35 73.6 °F 67.4 °F 30.03 in West 5.0 mph 5.0 mph 81% 0.00 in WeatherDisplay:10.37 W/m2 FEW
22:40 73.6 °F 67.4 °F 30.03 in West 5.0 mph 5.0 mph 81% 0.00 in WeatherDisplay:10.37 W/m2 FEW
22:50 73.6 °F 67.4 °F 30.03 in West 5.0 mph 5.0 mph 81% 0.00 in WeatherDisplay:10.37 W/m2 FEW
22:55 73.4 °F 67.2 °F 30.03 in West 5.0 mph 5.0 mph 81% 0.00 in WeatherDisplay:10.37 W/m2 FEW
23:00 73.3 °F 67.1 °F 30.03 in West 5.0 mph 5.0 mph 81% 0.00 in WeatherDisplay:10.37 W/m2 FEW
23:05 73.4 °F 67.2 °F 30.03 in West 5.0 mph 5.0 mph 81% 0.00 in WeatherDisplay:10.37 W/m2 FEW
23:10 73.5 °F 67.3 °F 30.03 in West 5.0 mph 5.0 mph 81% 0.00 in WeatherDisplay:10.37 W/m2 FEW
23:20 73.7 °F 67.5 °F 30.03 in NNW 3.0 mph 3.0 mph 81% 0.00 in WeatherDisplay:10.37 W/m2 FEW
23:30 73.8 °F 67.6 °F 30.03 in NNW 3.0 mph 3.0 mph 81% 0.00 in WeatherDisplay:10.37 W/m2 FEW
23:35 73.6 °F 67.4 °F 30.03 in NNW 3.0 mph 3.0 mph 81% 0.00 in WeatherDisplay:10.37 W/m2 FEW
23:40 73.4 °F 67.5 °F 30.04 in NNW 3.0 mph 3.0 mph 82% 0.00 in WeatherDisplay:10.37 W/m2 FEW
23:45 73.3 °F 67.5 °F 30.04 in NNW 3.0 mph 3.0 mph 82% 0.00 in WeatherDisplay:10.37 W/m2 FEW
23:50 73.4 °F 67.6 °F 30.04 in NNW 3.0 mph 3.0 mph 82% 0.00 in WeatherDisplay:10.37 W/m2 FEW
23:55 73.1 °F 67.3 °F 30.04 in NNW 3.0 mph 3.0 mph 82% 0.00 in WeatherDisplay:10.37 W/m2 FEW
Piedmont Bend
Compliments of Weather Underground - 4 mb